�������l�o���
Date,Time,MP-1(��Sv/h),MP-2(��Sv/h),MP-3(��Sv/h),MP-4(��Sv/h),MP-5(��Sv/h),MP-6(��Sv/h),MP-7(��Sv/h),MP-8(��Sv/h),����,����(m/s),���J
2021/08/02,00:00,0.596,0.885,0.566,1.068,0.762,0.364,0.629,0.588,��,5.0,��
2021/08/02,00:10,0.597,0.883,0.567,1.071,0.761,0.365,0.628,0.589,��,5.1,��
2021/08/02,00:20,0.594,0.883,0.567,1.069,0.761,0.364,0.629,0.588,��,3.7,��
2021/08/02,00:30,0.594,0.885,0.566,1.070,0.761,0.365,0.628,0.589,��,3.6,��
2021/08/02,00:40,0.595,0.885,0.565,1.070,0.762,0.362,0.628,0.589,��,4.0,��
2021/08/02,00:50,0.594,0.887,0.566,1.071,0.763,0.365,0.630,0.588,��,3.5,��
2021/08/02,01:00,0.597,0.884,0.567,1.070,0.763,0.364,0.630,0.589,��쐼,3.2,��
2021/08/02,01:10,0.594,0.884,0.565,1.069,0.761,0.364,0.629,0.590,��,4.0,��
2021/08/02,01:20,0.595,0.884,0.566,1.071,0.763,0.364,0.628,0.589,��쐼,5.6,��
2021/08/02,01:30,0.596,0.884,0.565,1.071,0.761,0.365,0.629,0.589,��쐼,5.4,��
2021/08/02,01:40,0.595,0.885,0.566,1.068,0.762,0.366,0.628,0.588,��,5.4,��
2021/08/02,01:50,0.595,0.885,0.566,1.070,0.761,0.365,0.627,0.589,��,3.6,��
2021/08/02,02:00,0.596,0.885,0.566,1.072,0.761,0.364,0.627,0.588,��쐼,3.3,��
2021/08/02,02:10,0.596,0.884,0.567,1.071,0.761,0.365,0.629,0.589,��,3.8,��
2021/08/02,02:20,0.594,0.885,0.565,1.071,0.761,0.365,0.626,0.590,��,4.4,��
2021/08/02,02:30,0.595,0.883,0.567,1.069,0.761,0.364,0.627,0.588,��,4.9,��
2021/08/02,02:40,0.596,0.884,0.564,1.071,0.763,0.365,0.628,0.589,��,5.8,��
2021/08/02,02:50,0.596,0.883,0.566,1.071,0.761,0.364,0.626,0.588,��,6.9,��
2021/08/02,03:00,0.594,0.885,0.566,1.072,0.762,0.364,0.628,0.589,��,6.6,��
2021/08/02,03:10,0.596,0.883,0.566,1.071,0.762,0.365,0.628,0.587,��,6.5,��
2021/08/02,03:20,0.594,0.886,0.566,1.073,0.762,0.363,0.627,0.588,��쓌,9.1,��
2021/08/02,03:30,0.596,0.884,0.565,1.073,0.762,0.365,0.629,0.588,��쓌,10.2,��
2021/08/02,03:40,0.594,0.886,0.565,1.069,0.761,0.364,0.629,0.587,��,9.9,��
2021/08/02,03:50,0.594,0.882,0.567,1.067,0.760,0.364,0.629,0.588,��,8.7,��
2021/08/02,04:00,0.595,0.883,0.567,1.069,0.763,0.364,0.629,0.588,��,7.9,��
2021/08/02,04:10,0.594,0.884,0.566,1.070,0.762,0.365,0.629,0.590,��쐼,7.8,��
2021/08/02,04:20,0.594,0.883,0.568,1.070,0.762,0.365,0.628,0.588,��,7.9,��
2021/08/02,04:30,0.595,0.884,0.565,1.071,0.760,0.365,0.628,0.588,��,8.2,��
2021/08/02,04:40,0.593,0.884,0.565,1.070,0.761,0.366,0.628,0.587,��,7.4,��
2021/08/02,04:50,0.596,0.883,0.566,1.070,0.762,0.364,0.626,0.590,��쐼,6.2,��
2021/08/02,05:00,0.594,0.886,0.565,1.069,0.760,0.363,0.628,0.589,��,6.3,��
2021/08/02,05:10,0.595,0.886,0.565,1.071,0.761,0.364,0.627,0.590,��쐼,5.4,��
2021/08/02,05:20,0.594,0.885,0.565,1.071,0.763,0.365,0.628,0.588,��쐼,5.3,��
2021/08/02,05:30,0.594,0.885,0.566,1.073,0.764,0.363,0.628,0.588,��쐼,4.7,��
2021/08/02,05:40,0.595,0.886,0.566,1.070,0.761,0.363,0.629,0.590,��,4.5,��
2021/08/02,05:50,0.595,0.884,0.566,1.070,0.763,0.363,0.628,0.588,��쓌,6.5,��
2021/08/02,06:00,0.595,0.886,0.565,1.073,0.762,0.365,0.628,0.588,��쓌,7.7,��
2021/08/02,06:10,0.597,0.886,0.566,1.074,0.762,0.365,0.630,0.589,��,8.1,��
2021/08/02,06:20,0.597,0.887,0.567,1.072,0.762,0.366,0.630,0.589,��,7.4,��
2021/08/02,06:30,0.595,0.886,0.567,1.070,0.764,0.365,0.630,0.588,��,7.2,��
2021/08/02,06:40,0.597,0.887,0.566,1.070,0.762,0.365,0.628,0.589,��,5.9,��
2021/08/02,06:50,0.598,0.884,0.567,1.071,0.761,0.363,0.628,0.588,��,5.4,��
2021/08/02,07:00,0.598,0.884,0.567,1.072,0.761,0.365,0.629,0.588,��,4.9,��
2021/08/02,07:10,0.599,0.884,0.566,1.071,0.764,0.365,0.628,0.590,��,4.3,��
2021/08/02,07:20,0.598,0.885,0.565,1.073,0.764,0.365,0.629,0.589,��,3.6,��
2021/08/02,07:30,0.598,0.884,0.566,1.072,0.762,0.366,0.630,0.589,��,3.9,��
2021/08/02,07:40,0.596,0.884,0.567,1.073,0.762,0.363,0.629,0.588,��쐼,4.2,��
2021/08/02,07:50,0.599,0.886,0.565,1.073,0.764,0.365,0.629,0.588,��쐼,3.4,��
2021/08/02,08:00,0.597,0.886,0.566,1.070,0.764,0.365,0.631,0.589,��쓌,3.7,��
2021/08/02,08:10,0.597,0.885,0.566,1.071,0.761,0.366,0.628,0.589,��쓌,5.8,��
2021/08/02,08:20,0.598,0.884,0.565,1.071,0.762,0.367,0.629,0.588,��쓌,6.9,��
2021/08/02,08:30,0.597,0.886,0.566,1.074,0.763,0.366,0.631,0.589,��,5.8,��
2021/08/02,08:40,0.599,0.884,0.567,1.074,0.764,0.365,0.629,0.587,��,5.6,��
2021/08/02,08:50,0.598,0.887,0.566,1.071,0.763,0.364,0.630,0.588,��,6.0,��
2021/08/02,09:00,0.598,0.885,0.567,1.071,0.761,0.365,0.630,0.587,��,7.2,��
2021/08/02,09:10,0.598,0.885,0.566,1.073,0.763,0.365,0.632,0.587,��,6.4,��
2021/08/02,09:20,0.597,0.885,0.566,1.074,0.765,0.364,0.631,0.588,��,6.5,��
2021/08/02,09:30,0.598,0.883,0.569,1.071,0.766,0.364,0.631,0.588,��,6.4,��
2021/08/02,09:40,0.598,0.885,0.566,1.073,0.763,0.364,0.629,0.587,��쓌,6.3,��
2021/08/02,09:50,0.598,0.886,0.567,1.072,0.766,0.366,0.631,0.588,��쓌,7.9,��
2021/08/02,10:00,0.599,0.885,0.567,1.074,0.766,0.364,0.628,0.587,��쓌,10.5,��
2021/08/02,10:10,0.598,0.887,0.566,1.072,0.766,0.365,0.629,0.589,��쓌,9.6,��
2021/08/02,10:20,0.598,0.885,0.564,1.075,0.766,0.366,0.629,0.587,��쓌,10.2,��
2021/08/02,10:30,0.598,0.887,0.569,1.073,0.766,0.366,0.629,0.589,��쓌,10.2,��
2021/08/02,10:40,0.599,0.887,0.568,1.075,0.767,0.365,0.631,0.587,��쓌,10.6,��
2021/08/02,10:50,0.598,0.887,0.565,1.073,0.765,0.364,0.629,0.588,��쓌,11.7,��
2021/08/02,11:00,0.599,0.889,0.568,1.075,0.767,0.363,0.629,0.588,��쓌,11.8,��
2021/08/02,11:10,0.599,0.887,0.568,1.076,0.767,0.365,0.630,0.589,��쓌,13.1,��
2021/08/02,11:20,0.598,0.889,0.566,1.074,0.767,0.365,0.630,0.587,��쓌,11.9,��
2021/08/02,11:30,0.601,0.889,0.568,1.074,0.769,0.364,0.628,0.586,��쓌,14.2,��
2021/08/02,11:40,0.598,0.890,0.567,1.074,0.768,0.364,0.631,0.589,��쓌,11.6,��
2021/08/02,11:50,0.599,0.889,0.568,1.072,0.766,0.366,0.630,0.589,��,9.9,��
2021/08/02,12:00,0.602,0.888,0.568,1.073,0.767,0.367,0.630,0.589,��쓌,11.6,��
2021/08/02,12:10,0.600,0.892,0.567,1.073,0.768,0.366,0.630,0.590,��,14.1,��
2021/08/02,12:20,0.601,0.891,0.569,1.074,0.769,0.366,0.629,0.589,��,10.8,��
2021/08/02,12:30,0.601,0.892,0.568,1.075,0.769,0.366,0.629,0.589,��쓌,10.7,��
2021/08/02,12:40,0.601,0.891,0.567,1.075,0.771,0.365,0.631,0.589,��쓌,12.0,��
2021/08/02,12:50,0.601,0.892,0.568,1.075,0.769,0.368,0.631,0.590,��쓌,13.5,��
2021/08/02,13:00,0.601,0.892,0.570,1.075,0.771,0.367,0.629,0.591,��쓌,13.3,��
2021/08/02,13:10,0.601,0.892,0.569,1.073,0.769,0.368,0.629,0.590,��쓌,11.4,��
2021/08/02,13:20,0.601,0.891,0.567,1.075,0.772,0.367,0.631,0.589,��,11.8,��
2021/08/02,13:30,0.601,0.888,0.569,1.075,0.770,0.366,0.632,0.588,��쓌,11.6,��
2021/08/02,13:40,0.601,0.889,0.568,1.075,0.770,0.367,0.630,0.591,��,10.0,��
2021/08/02,13:50,0.599,0.892,0.568,1.076,0.769,0.367,0.631,0.592,��쓌,10.8,��
2021/08/02,14:00,0.601,0.891,0.567,1.078,0.769,0.367,0.630,0.591,��,9.9,��
2021/08/02,14:10,0.600,0.894,0.569,1.079,0.770,0.366,0.629,0.590,��,8.1,��
2021/08/02,14:20,0.598,0.891,0.568,1.077,0.769,0.367,0.630,0.591,��,7.7,��
2021/08/02,14:30,0.601,0.892,0.568,1.078,0.771,0.367,0.631,0.592,��,7.4,��
2021/08/02,14:40,0.602,0.893,0.569,1.080,0.772,0.366,0.630,0.590,��,9.1,��
2021/08/02,14:50,0.601,0.893,0.569,1.080,0.770,0.367,0.631,0.592,��,8.3,��
2021/08/02,15:00,0.601,0.893,0.568,1.080,0.770,0.367,0.630,0.591,��,9.8,��
2021/08/02,15:10,0.601,0.895,0.568,1.078,0.773,0.367,0.631,0.591,��,8.9,��
2021/08/02,15:20,0.603,0.895,0.571,1.078,0.773,0.368,0.630,0.591,��쓌,7.6,��
2021/08/02,15:30,0.601,0.895,0.570,1.078,0.775,0.366,0.630,0.589,��쓌,10.6,��
2021/08/02,15:40,0.602,0.896,0.570,1.078,0.773,0.368,0.631,0.590,��,9.5,��
2021/08/02,15:50,0.602,0.897,0.570,1.081,0.773,0.368,0.631,0.590,��쓌,10.8,��
2021/08/02,16:00,0.603,0.898,0.570,1.079,0.775,0.368,0.632,0.590,��,10.3,��
2021/08/02,16:10,0.603,0.897,0.570,1.080,0.775,0.368,0.633,0.589,��쓌,11.9,��
2021/08/02,16:20,0.603,0.899,0.571,1.079,0.773,0.368,0.634,0.591,��쓌,12.5,��
2021/08/02,16:30,0.603,0.898,0.569,1.076,0.773,0.369,0.633,0.588,��쓌,12.5,��
2021/08/02,16:40,0.604,0.896,0.570,1.080,0.775,0.369,0.633,0.589,��쓌,12.0,��
2021/08/02,16:50,0.602,0.895,0.570,1.080,0.772,0.367,0.633,0.591,��쓌,11.3,��
2021/08/02,17:00,0.604,0.898,0.569,1.080,0.773,0.368,0.631,0.590,��쓌,11.8,��
2021/08/02,17:10,0.603,0.896,0.571,1.082,0.772,0.367,0.631,0.588,��,10.9,��
2021/08/02,17:20,0.602,0.894,0.569,1.082,0.771,0.368,0.631,0.589,��,9.1,��
2021/08/02,17:30,0.602,0.895,0.570,1.083,0.773,0.369,0.632,0.590,��,7.1,��
2021/08/02,17:40,0.604,0.895,0.571,1.081,0.774,0.369,0.632,0.591,��,8.2,��
2021/08/02,17:50,0.601,0.897,0.570,1.083,0.774,0.367,0.629,0.589,��,7.6,��
2021/08/02,18:00,0.602,0.895,0.571,1.080,0.774,0.367,0.632,0.590,��,6.8,��
2021/08/02,18:10,0.602,0.895,0.569,1.081,0.772,0.366,0.630,0.591,��,7.9,��
2021/08/02,18:20,0.600,0.894,0.571,1.081,0.774,0.367,0.633,0.590,��,7.5,��
2021/08/02,18:30,0.603,0.895,0.570,1.079,0.772,0.368,0.632,0.589,��,7.7,��
2021/08/02,18:40,0.602,0.897,0.572,1.083,0.772,0.367,0.632,0.590,��,7.3,��
2021/08/02,18:50,0.601,0.895,0.570,1.080,0.773,0.368,0.631,0.590,��,7.9,��
2021/08/02,19:00,0.601,0.899,0.570,1.083,0.773,0.366,0.632,0.590,��,7.4,��
2021/08/02,19:10,0.601,0.899,0.570,1.081,0.772,0.367,0.632,0.591,��,7.0,��
2021/08/02,19:20,0.601,0.897,0.570,1.082,0.774,0.368,0.633,0.593,��,6.0,��
2021/08/02,19:30,0.602,0.896,0.570,1.081,0.773,0.368,0.632,0.590,��,7.7,��
2021/08/02,19:40,0.603,0.897,0.570,1.080,0.774,0.368,0.632,0.591,��,6.0,��
2021/08/02,19:50,0.601,0.899,0.571,1.080,0.775,0.367,0.632,0.590,��,8.3,��
2021/08/02,20:00,0.604,0.900,0.573,1.084,0.774,0.368,0.631,0.590,��,6.3,��
2021/08/02,20:10,0.607,0.900,0.573,1.083,0.776,0.369,0.631,0.590,��,8.0,��
2021/08/02,20:20,0.605,0.899,0.570,1.082,0.774,0.367,0.632,0.591,��,9.5,��
2021/08/02,20:30,0.605,0.901,0.571,1.082,0.775,0.370,0.632,0.590,��,9.0,��
2021/08/02,20:40,0.606,0.900,0.571,1.082,0.774,0.368,0.631,0.590,��,8.4,��
2021/08/02,20:50,0.604,0.899,0.573,1.082,0.776,0.368,0.631,0.591,��,8.4,��
2021/08/02,21:00,0.605,0.899,0.573,1.082,0.776,0.367,0.631,0.592,��,8.7,��
2021/08/02,21:10,0.603,0.896,0.572,1.083,0.772,0.366,0.634,0.592,��,7.6,��
2021/08/02,21:20,0.603,0.900,0.572,1.083,0.774,0.368,0.633,0.591,��쐼,6.9,��
2021/08/02,21:30,0.604,0.900,0.572,1.083,0.775,0.368,0.632,0.591,��쐼,8.2,��
2021/08/02,21:40,0.605,0.899,0.571,1.083,0.775,0.366,0.631,0.592,��,7.7,��
2021/08/02,21:50,0.604,0.899,0.573,1.083,0.775,0.368,0.633,0.592,��,8.9,��
2021/08/02,22:00,0.605,0.899,0.573,1.084,0.776,0.366,0.633,0.590,��,7.4,��
2021/08/02,22:10,0.602,0.897,0.571,1.083,0.774,0.367,0.632,0.591,��,6.0,��
2021/08/02,22:20,0.605,0.900,0.572,1.084,0.777,0.368,0.632,0.591,��,5.7,��
2021/08/02,22:30,0.602,0.897,0.571,1.083,0.775,0.367,0.633,0.590,��,8.4,��
2021/08/02,22:40,0.604,0.898,0.571,1.080,0.773,0.366,0.632,0.590,��,7.6,��
2021/08/02,22:50,0.604,0.899,0.571,1.081,0.776,0.369,0.632,0.591,��,6.9,��
2021/08/02,23:00,0.603,0.899,0.571,1.082,0.776,0.366,0.632,0.591,��,7.6,��
2021/08/02,23:10,0.603,0.900,0.571,1.083,0.777,0.368,0.633,0.592,��,7.1,��
2021/08/02,23:20,0.605,0.899,0.570,1.084,0.775,0.367,0.633,0.591,��,6.4,��
2021/08/02,23:30,0.604,0.898,0.571,1.082,0.775,0.368,0.632,0.592,��,7.2,��
2021/08/02,23:40,0.602,0.898,0.571,1.084,0.774,0.367,0.634,0.590,��,6.2,��
2021/08/02,23:50,0.602,0.898,0.572,1.083,0.776,0.368,0.633,0.592,��,7.6,��
